Flag for Colombia Weather past 2 weeks in Cúcuta, Colombia

Now
57 °F

Passing clouds.


Feels Like: 57 °F
Forecast: 74 / 100 °F
Wind: No wind

Location: Rionegro / J. M. Cordova

Current Time: Sep 4, 2015 at 3:48:16 AM

Latest Report: Sep 4, 2015 at 3:00 AM


Visibility: N/A

Pressure: 30.29 "Hg

Humidity: 94%

Dew point: 55 °F

Location of CúcutaLocation

Historic Weather in Cúcuta — Graph

°F

Cúcuta temperature yesterday

Maximum temperature yesterday: 75 °F (at 2:00 PM)
Minimum temperature yesterday: 54 °F (at 6:00 AM)
Average temperature yesterday: 64 °F

Past Weeks' High & Low Weather Summary

 TemperatureHumidityPressure
High84 °F (Aug 22, 1:00 PM)100% (Aug 20, 3:00 AM)30.39 "Hg (Aug 20, 3:00 AM)
Low52 °F (Aug 30, 3:00 AM)34% (Sep 3, 2:00 PM)30.01 "Hg (Aug 23, 10:00 AM)
Average64 °F76%30.28 "Hg
* Reported Aug 20 3:00 AM — Sep 4 3:00 AM, Cúcuta, Weather by CustomWeather, © 2015

Note: Actual official high and low records may vary slightly from our data, if they occured in-between our weather recording intervals... More about our weather records

Advertising

Cúcuta weather history for previous 24 hours

 ConditionsComfort  
Time TempWeatherWind HumidityBarometerVisibility
3:00 AM
Fri, Sep 4
57 °FPassing clouds.No wind94%30.29 "HgN/A
2:00 AM57 °FPassing clouds.No wind94%30.29 "HgN/A
1:00 AM59 °FPartly cloudy.No wind88%30.31 "HgN/A
12:00 AM61 °FPartly cloudy.No wind88%30.31 "HgN/A
11:00 PM
Thu, Sep 3
59 °FPartly cloudy.No wind88%30.33 "HgN/A
10:00 PM61 °FPassing clouds.No wind83%30.31 "HgN/A
9:00 PM64 °FOvercast.No wind68%30.29 "HgN/A
8:00 PM64 °FMostly cloudy.No wind68%30.28 "HgN/A
7:00 PM66 °FOvercast.6 mph64%30.25 "HgN/A
6:00 PM70 °FPartly sunny.7 mph46%30.23 "HgN/A
5:00 PM72 °FPartly sunny.12 mph44%30.22 "HgN/A
4:00 PM73 °FPartly sunny.16 mph38%30.22 "HgN/A
3:00 PM73 °FPartly sunny.14 mph36%30.25 "HgN/A
2:00 PM75 °FPartly sunny.14 mph34%30.26 "HgN/A
1:00 PM73 °FPartly sunny.14 mph41%30.28 "HgN/A
12:00 PM73 °FScattered clouds.14 mph38%30.29 "HgN/A
11:00 AM72 °FScattered clouds.13 mph50%30.30 "HgN/A
10:00 AM66 °FPartly sunny.No wind68%30.33 "HgN/A
9:00 AM63 °FScattered clouds.5 mph77%30.34 "HgN/A
8:00 AM59 °FPartly sunny.No wind82%30.33 "HgN/A
7:00 AM54 °FBroken clouds.No wind94%30.30 "Hg2 mi
6:00 AM54 °FFog.No wind94%30.27 "Hg4 mi
5:00 AM55 °FPassing clouds.No wind88%30.26 "Hg5 mi
4:00 AM57 °FPassing clouds.No wind88%30.25 "Hg5 mi
3:00 AM59 °FPartly cloudy.No wind88%30.30 "Hg5 mi
Weather by CustomWeather, © 2015

See weather overviewHow to use our weather pages